Time,TemperatureF,DewpointF,PressureIn,WindDirection,WindDirectionDegrees,WindSpeedMPH,WindSpeedGustMPH,Humidity,HourlyPrecipIn,Conditions,Clouds,dailyrainin,SoftwareType,DateUTC
2013-03-28 00:00:00,41.6,30.7,29.83,NW,326,4.0,7.0,65,0.00,,,0.00,Wunderground v.1.15,2013-03-28 04:00:00,
2013-03-28 00:01:00,41.5,30.6,29.83,North,11,9.0,9.0,65,0.00,,,0.00,Wunderground v.1.15,2013-03-28 04:01:00,
2013-03-28 00:03:00,41.5,31.0,29.83,NNW,337,7.0,9.0,66,0.00,,,0.00,Wunderground v.1.15,2013-03-28 04:03:00,
2013-03-28 00:09:00,41.3,30.8,29.83,NW,307,5.0,9.0,66,0.00,,,0.00,Wunderground v.1.15,2013-03-28 04:09:00,
2013-03-28 00:14:00,41.2,30.7,29.83,NNW,344,10.0,13.0,66,0.00,,,0.00,Wunderground v.1.15,2013-03-28 04:14:00,
2013-03-28 00:19:00,41.0,30.9,29.83,NNW,329,7.0,14.0,67,0.00,,,0.00,Wunderground v.1.15,2013-03-28 04:19:00,
2013-03-28 00:25:00,40.9,31.1,29.83,North,355,7.0,10.0,68,0.00,,,0.00,Wunderground v.1.15,2013-03-28 04:25:00,
2013-03-28 00:30:00,40.7,31.0,29.83,WNW,284,8.0,8.0,68,0.00,,,0.00,Wunderground v.1.15,2013-03-28 04:30:00,
2013-03-28 00:35:00,40.6,30.9,29.83,NNW,331,14.0,14.0,68,0.00,,,0.00,Wunderground v.1.15,2013-03-28 04:35:00,
2013-03-28 00:40:00,40.5,31.1,29.83,NW,311,7.0,9.0,69,0.00,,,0.00,Wunderground v.1.15,2013-03-28 04:40:00,
2013-03-28 00:45:00,40.5,31.1,29.83,NNW,330,15.0,15.0,69,0.00,,,0.00,Wunderground v.1.15,2013-03-28 04:45:00,
2013-03-28 00:50:00,40.4,31.4,29.83,NNW,329,8.0,9.0,70,0.00,,,0.00,Wunderground v.1.15,2013-03-28 04:50:00,
2013-03-28 00:55:00,40.4,31.4,29.83,NNW,344,4.0,9.0,70,0.00,,,0.00,Wunderground v.1.15,2013-03-28 04:55:00,
2013-03-28 01:02:00,40.5,31.5,29.83,North,9,6.0,7.0,70,0.00,,,0.00,Wunderground v.1.15,2013-03-28 05:02:00,
2013-03-28 01:07:00,40.4,31.7,29.84,NNW,332,8.0,12.0,71,0.00,,,0.00,Wunderground v.1.15,2013-03-28 05:07:00,
2013-03-28 01:12:00,40.4,31.7,29.84,NNW,345,10.0,10.0,71,0.00,,,0.00,Wunderground v.1.15,2013-03-28 05:12:00,
2013-03-28 01:17:00,40.3,32.0,29.84,NNW,340,8.0,15.0,72,0.00,,,0.00,Wunderground v.1.15,2013-03-28 05:17:00,
2013-03-28 01:23:00,40.1,32.1,29.83,NW,326,7.0,10.0,73,0.00,,,0.00,Wunderground v.1.15,2013-03-28 05:23:00,
2013-03-28 01:28:00,40.0,32.4,29.83,NW,318,12.0,12.0,74,0.00,,,0.00,Wunderground v.1.15,2013-03-28 05:28:00,
2013-03-28 01:34:00,39.8,32.5,29.84,NNW,335,13.0,13.0,75,0.00,,,0.00,Wunderground v.1.15,2013-03-28 05:34:00,
2013-03-28 01:39:00,39.7,32.4,29.84,NW,311,9.0,13.0,75,0.00,,,0.00,Wunderground v.1.15,2013-03-28 05:39:00,
2013-03-28 01:45:00,39.5,32.6,29.84,North,360,6.0,11.0,76,0.00,,,0.00,Wunderground v.1.15,2013-03-28 05:45:00,
2013-03-28 01:51:00,39.3,32.4,29.84,NW,321,6.0,8.0,76,0.00,,,0.00,Wunderground v.1.15,2013-03-28 05:51:00,
2013-03-28 01:56:00,39.2,32.6,29.84,NNW,342,6.0,10.0,77,0.00,,,0.00,Wunderground v.1.15,2013-03-28 05:56:00,
2013-03-28 02:01:00,39.1,32.5,29.83,NW,316,5.0,6.0,77,0.00,,,0.00,Wunderground v.1.15,2013-03-28 06:01:00,
2013-03-28 02:06:00,39.1,32.5,29.83,NNE,22,7.0,10.0,77,0.00,,,0.00,Wunderground v.1.15,2013-03-28 06:06:00,
2013-03-28 02:11:00,39.1,32.5,29.84,NNW,331,10.0,10.0,77,0.00,,,0.00,Wunderground v.1.15,2013-03-28 06:11:00,
2013-03-28 02:16:00,39.0,32.7,29.84,NW,317,5.0,12.0,78,0.00,,,0.00,Wunderground v.1.15,2013-03-28 06:16:00,
2013-03-28 02:22:00,39.0,32.7,29.84,NNW,346,4.0,11.0,78,0.00,,,0.00,Wunderground v.1.15,2013-03-28 06:22:00,
2013-03-28 02:27:00,39.0,32.7,29.84,NNW,338,4.0,14.0,78,0.00,,,0.00,Wunderground v.1.15,2013-03-28 06:27:00,
2013-03-28 02:32:00,38.9,32.6,29.84,North,355,4.0,9.0,78,0.00,,,0.00,Wunderground v.1.15,2013-03-28 06:32:00,
2013-03-28 02:37:00,38.8,32.8,29.84,NNW,330,6.0,11.0,79,0.00,,,0.00,Wunderground v.1.15,2013-03-28 06:37:00,
2013-03-28 02:42:00,38.8,34.4,29.84,NW,323,2.0,8.0,84,0.00,,,0.00,Wunderground v.1.15,2013-03-28 06:42:00,
2013-03-28 02:47:00,38.8,32.8,29.84,NNW,338,5.0,8.0,79,0.00,,,0.00,Wunderground v.1.15,2013-03-28 06:47:00,
2013-03-28 02:52:00,38.7,32.7,29.84,NNW,339,6.0,9.0,79,0.00,,,0.00,Wunderground v.1.15,2013-03-28 06:52:00,
2013-03-28 02:57:00,38.7,33.1,29.84,NNW,329,3.0,9.0,80,0.00,,,0.00,Wunderground v.1.15,2013-03-28 06:57:00,
2013-03-28 03:02:00,38.6,33.0,29.84,NW,325,5.0,8.0,80,0.00,,,0.00,Wunderground v.1.15,2013-03-28 07:02:00,
2013-03-28 03:07:00,38.6,33.0,29.84,North,5,7.0,11.0,80,0.00,,,0.01,Wunderground v.1.15,2013-03-28 07:07:00,
2013-03-28 03:12:00,38.4,33.1,29.84,WNW,291,4.0,9.0,81,0.00,,,0.01,Wunderground v.1.15,2013-03-28 07:12:00,
2013-03-28 03:17:00,38.3,33.0,29.84,North,355,5.0,9.0,81,0.00,,,0.01,Wunderground v.1.15,2013-03-28 07:17:00,
2013-03-28 03:22:00,38.3,33.0,29.84,NW,319,10.0,11.0,81,0.00,,,0.01,Wunderground v.1.15,2013-03-28 07:22:00,
2013-03-28 03:27:00,38.3,33.0,29.84,NW,307,5.0,13.0,81,0.00,,,0.01,Wunderground v.1.15,2013-03-28 07:27:00,
2013-03-28 03:32:00,38.2,32.9,29.84,NW,315,5.0,9.0,81,0.00,,,0.01,Wunderground v.1.15,2013-03-28 07:32:00,
2013-03-28 03:38:00,38.2,32.9,29.84,NNW,327,4.0,9.0,81,0.00,,,0.01,Wunderground v.1.15,2013-03-28 07:38:00,
2013-03-28 03:43:00,38.1,32.8,29.84,North,355,6.0,10.0,81,0.00,,,0.01,Wunderground v.1.15,2013-03-28 07:43:00,
2013-03-28 03:48:00,38.1,32.8,29.84,North,5,8.0,10.0,81,0.00,,,0.01,Wunderground v.1.15,2013-03-28 07:48:00,
2013-03-28 03:53:00,38.0,33.0,29.84,NNW,329,5.0,7.0,82,0.00,,,0.01,Wunderground v.1.15,2013-03-28 07:53:00,
2013-03-28 03:58:00,38.0,33.0,29.84,NNW,337,7.0,10.0,82,0.00,,,0.01,Wunderground v.1.15,2013-03-28 07:58:00,
2013-03-28 04:03:00,38.0,32.7,29.84,NNW,331,5.0,9.0,81,0.00,,,0.01,Wunderground v.1.15,2013-03-28 08:03:00,
2013-03-28 04:08:00,38.0,32.7,29.84,NNW,342,4.0,9.0,81,0.00,,,0.01,Wunderground v.1.15,2013-03-28 08:08:00,
2013-03-28 04:13:00,37.9,32.6,29.84,NW,321,5.0,6.0,81,0.00,,,0.01,Wunderground v.1.15,2013-03-28 08:13:00,
2013-03-28 04:18:00,37.9,32.6,29.84,WNW,300,2.0,7.0,81,0.00,,,0.01,Wunderground v.1.15,2013-03-28 08:18:00,
2013-03-28 04:23:00,37.9,32.6,29.84,NW,314,2.0,6.0,81,0.00,,,0.01,Wunderground v.1.15,2013-03-28 08:23:00,
2013-03-28 04:28:00,37.9,32.9,29.84,NNW,348,6.0,7.0,82,0.00,,,0.01,Wunderground v.1.15,2013-03-28 08:28:00,
2013-03-28 04:33:00,37.9,32.9,29.84,NW,322,4.0,7.0,82,0.00,,,0.01,Wunderground v.1.15,2013-03-28 08:33:00,
2013-03-28 04:38:00,37.8,32.5,29.84,NW,318,3.0,7.0,81,0.00,,,0.01,Wunderground v.1.15,2013-03-28 08:38:00,
2013-03-28 04:43:00,37.7,32.4,29.84,NNW,333,5.0,10.0,81,0.00,,,0.01,Wunderground v.1.15,2013-03-28 08:43:00,
2013-03-28 04:48:00,37.7,32.4,29.84,North,355,5.0,10.0,81,0.00,,,0.01,Wunderground v.1.15,2013-03-28 08:48:00,
2013-03-28 04:53:00,37.7,32.4,29.84,NNW,331,5.0,9.0,81,0.00,,,0.01,Wunderground v.1.15,2013-03-28 08:53:00,
2013-03-28 04:58:00,37.6,32.6,29.84,NW,312,4.0,9.0,82,0.00,,,0.01,Wunderground v.1.15,2013-03-28 08:58:00,
2013-03-28 05:03:00,37.6,32.6,29.84,NNW,344,3.0,12.0,82,0.00,,,0.01,Wunderground v.1.15,2013-03-28 09:03:00,
2013-03-28 05:08:00,37.5,32.2,29.85,North,355,3.0,12.0,81,0.00,,,0.01,Wunderground v.1.15,2013-03-28 09:08:00,
2013-03-28 05:13:00,37.4,32.1,29.85,NNW,336,3.0,8.0,81,0.00,,,0.01,Wunderground v.1.15,2013-03-28 09:13:00,
2013-03-28 05:18:00,37.4,32.1,29.85,North,350,4.0,8.0,81,0.00,,,0.01,Wunderground v.1.15,2013-03-28 09:18:00,
2013-03-28 05:23:00,37.3,32.0,29.85,NW,321,1.0,7.0,81,0.00,,,0.01,Wunderground v.1.15,2013-03-28 09:23:00,
2013-03-28 05:28:00,37.3,32.0,29.85,NW,323,4.0,7.0,81,0.00,,,0.01,Wunderground v.1.15,2013-03-28 09:28:00,
2013-03-28 05:33:00,37.3,32.0,29.85,North,351,1.0,8.0,81,0.00,,,0.01,Wunderground v.1.15,2013-03-28 09:33:00,
2013-03-28 05:38:00,37.3,32.0,29.85,NW,307,5.0,8.0,81,0.00,,,0.01,Wunderground v.1.15,2013-03-28 09:38:00,
2013-03-28 05:43:00,37.2,32.2,29.85,NW,317,4.0,6.0,82,0.00,,,0.01,Wunderground v.1.15,2013-03-28 09:43:00,
2013-03-28 05:48:00,37.3,32.3,29.86,West,279,1.0,7.0,82,0.00,,,0.01,Wunderground v.1.15,2013-03-28 09:48:00,
2013-03-28 05:53:00,37.3,32.3,29.86,NW,326,2.0,8.0,82,0.00,,,0.01,Wunderground v.1.15,2013-03-28 09:53:00,
2013-03-28 05:58:00,37.3,32.3,29.86,NNW,342,3.0,10.0,82,0.00,,,0.01,Wunderground v.1.15,2013-03-28 09:58:00,
2013-03-28 06:03:00,37.4,32.4,29.86,NNW,339,10.0,10.0,82,0.00,,,0.01,Wunderground v.1.15,2013-03-28 10:03:00,
2013-03-28 06:08:00,37.5,32.5,29.86,NNW,333,3.0,10.0,82,0.00,,,0.01,Wunderground v.1.15,2013-03-28 10:08:00,
2013-03-28 06:13:00,37.5,32.5,29.86,NNW,329,3.0,7.0,82,0.00,,,0.01,Wunderground v.1.15,2013-03-28 10:13:00,
2013-03-28 06:18:00,37.5,32.2,29.86,NW,319,5.0,7.0,81,0.00,,,0.01,Wunderground v.1.15,2013-03-28 10:18:00,
2013-03-28 06:23:00,37.6,32.6,29.86,NNW,330,3.0,8.0,82,0.00,,,0.01,Wunderground v.1.15,2013-03-28 10:23:00,
2013-03-28 06:28:00,37.6,32.6,29.86,North,355,6.0,8.0,82,0.00,,,0.01,Wunderground v.1.15,2013-03-28 10:28:00,
2013-03-28 06:33:00,37.6,32.3,29.86,NNW,336,9.0,9.0,81,0.00,,,0.01,Wunderground v.1.15,2013-03-28 10:33:00,
2013-03-28 06:38:00,37.7,32.4,29.86,North,355,5.0,10.0,81,0.00,,,0.01,Wunderground v.1.15,2013-03-28 10:38:00,
2013-03-28 06:43:00,37.7,32.4,29.86,NW,325,4.0,6.0,81,0.00,,,0.01,Wunderground v.1.15,2013-03-28 10:43:00,
2013-03-28 06:48:00,37.7,32.4,29.87,NW,319,2.0,7.0,81,0.00,,,0.01,Wunderground v.1.15,2013-03-28 10:48:00,
2013-03-28 06:53:00,37.6,32.3,29.87,NW,321,4.0,11.0,81,0.00,,,0.01,Wunderground v.1.15,2013-03-28 10:53:00,
2013-03-28 06:58:00,37.6,32.3,29.87,NNW,336,5.0,11.0,81,0.00,,,0.01,Wunderground v.1.15,2013-03-28 10:58:00,
2013-03-28 07:03:00,37.6,32.3,29.87,NW,304,4.0,9.0,81,0.00,,,0.01,Wunderground v.1.15,2013-03-28 11:03:00,
2013-03-28 07:08:00,37.6,32.3,29.87,NNW,342,6.0,9.0,81,0.00,,,0.01,Wunderground v.1.15,2013-03-28 11:08:00,
2013-03-28 07:13:00,37.6,32.3,29.87,NNW,345,4.0,8.0,81,0.00,,,0.01,Wunderground v.1.15,2013-03-28 11:13:00,
2013-03-28 07:18:00,37.7,32.4,29.88,NNW,333,4.0,8.0,81,0.00,,,0.01,Wunderground v.1.15,2013-03-28 11:18:00,
2013-03-28 07:23:00,37.8,32.5,29.88,North,5,8.0,8.0,81,0.00,,,0.01,Wunderground v.1.15,2013-03-28 11:23:00,
2013-03-28 07:28:00,37.9,32.6,29.88,NW,326,5.0,10.0,81,0.00,,,0.01,Wunderground v.1.15,2013-03-28 11:28:00,
2013-03-28 07:33:00,38.0,32.7,29.88,NW,323,5.0,7.0,81,0.00,,,0.01,Wunderground v.1.15,2013-03-28 11:33:00,
2013-03-28 07:38:00,38.1,32.5,29.88,NNW,345,1.0,8.0,80,0.00,,,0.01,Wunderground v.1.15,2013-03-28 11:38:00,
2013-03-28 07:43:00,38.2,32.6,29.88,NW,319,6.0,7.0,80,0.00,,,0.01,Wunderground v.1.15,2013-03-28 11:43:00,
2013-03-28 07:48:00,38.3,32.7,29.88,NNW,329,5.0,12.0,80,0.00,,,0.01,Wunderground v.1.15,2013-03-28 11:48:00,
2013-03-28 07:53:00,38.4,32.8,29.88,NNW,348,4.0,6.0,80,0.00,,,0.01,Wunderground v.1.15,2013-03-28 11:53:00,
2013-03-28 07:58:00,38.5,32.9,29.89,NNW,333,4.0,8.0,80,0.00,,,0.01,Wunderground v.1.15,2013-03-28 11:58:00,
2013-03-28 08:03:00,38.6,32.6,29.89,NNE,23,5.0,9.0,79,0.00,,,0.01,Wunderground v.1.15,2013-03-28 12:03:00,
2013-03-28 08:08:00,38.7,32.7,29.89,NE,39,8.0,11.0,79,0.00,,,0.01,Wunderground v.1.15,2013-03-28 12:08:00,
2013-03-28 08:13:00,38.9,32.6,29.89,NW,314,7.0,10.0,78,0.00,,,0.01,Wunderground v.1.15,2013-03-28 12:13:00,
2013-03-28 08:18:00,39.1,32.5,29.89,North,355,8.0,10.0,77,0.00,,,0.01,Wunderground v.1.15,2013-03-28 12:18:00,
2013-03-28 08:23:00,39.2,32.6,29.89,NNW,345,5.0,10.0,77,0.00,,,0.01,Wunderground v.1.15,2013-03-28 12:23:00,
2013-03-28 08:28:00,39.4,32.5,29.89,North,9,4.0,10.0,76,0.00,,,0.01,Wunderground v.1.15,2013-03-28 12:28:00,
2013-03-28 08:33:00,39.5,32.6,29.90,NNE,30,4.0,9.0,76,0.00,,,0.01,Wunderground v.1.15,2013-03-28 12:33:00,
2013-03-28 08:38:00,39.7,32.4,29.90,NNW,336,3.0,10.0,75,0.00,,,0.01,Wunderground v.1.15,2013-03-28 12:38:00,
2013-03-28 08:43:00,39.9,32.9,29.90,NE,56,2.0,8.0,76,0.00,,,0.01,Wunderground v.1.15,2013-03-28 12:43:00,
2013-03-28 08:48:00,40.2,33.2,29.90,NNW,329,9.0,11.0,76,0.00,,,0.01,Wunderground v.1.15,2013-03-28 12:48:00,
2013-03-28 08:53:00,40.4,33.1,29.90,NNE,26,2.0,9.0,75,0.00,,,0.01,Wunderground v.1.15,2013-03-28 12:53:00,
2013-03-28 08:58:00,40.8,33.2,29.90,North,5,2.0,9.0,74,0.00,,,0.01,Wunderground v.1.15,2013-03-28 12:58:00,
2013-03-28 09:04:00,41.1,33.1,29.90,North,360,4.0,7.0,73,0.00,,,0.01,Wunderground v.1.15,2013-03-28 13:04:00,
2013-03-28 09:09:00,41.5,33.1,29.90,NNE,15,9.0,9.0,72,0.00,,,0.01,Wunderground v.1.15,2013-03-28 13:09:00,
2013-03-28 09:14:00,41.9,33.5,29.90,North,5,6.0,11.0,72,0.00,,,0.01,Wunderground v.1.15,2013-03-28 13:14:00,
2013-03-28 09:19:00,42.2,33.1,29.90,NNE,25,5.0,11.0,70,0.00,,,0.01,Wunderground v.1.15,2013-03-28 13:19:00,
2013-03-28 09:24:00,42.5,32.7,29.90,NE,53,3.0,9.0,68,0.00,,,0.01,Wunderground v.1.15,2013-03-28 13:24:00,
2013-03-28 09:29:00,42.9,33.1,29.90,NNW,327,8.0,13.0,68,0.00,,,0.01,Wunderground v.1.15,2013-03-28 13:29:00,
2013-03-28 09:34:00,43.3,32.7,29.90,North,11,10.0,12.0,66,0.00,,,0.01,Wunderground v.1.15,2013-03-28 13:34:00,
2013-03-28 09:39:00,43.7,33.1,29.90,North,349,12.0,13.0,66,0.00,,,0.01,Wunderground v.1.15,2013-03-28 13:39:00,
2013-03-28 09:44:00,43.9,32.9,29.90,NNE,18,5.0,9.0,65,0.00,,,0.01,Wunderground v.1.15,2013-03-28 13:44:00,
2013-03-28 09:49:00,44.2,33.2,29.90,North,5,4.0,9.0,65,0.00,,,0.01,Wunderground v.1.15,2013-03-28 13:49:00,
2013-03-28 09:54:00,44.5,33.1,29.90,NNW,336,3.0,9.0,64,0.00,,,0.01,Wunderground v.1.15,2013-03-28 13:54:00,
2013-03-28 09:59:00,44.7,32.9,29.90,NE,42,6.0,9.0,63,0.00,,,0.01,Wunderground v.1.15,2013-03-28 13:59:00,
2013-03-28 10:04:00,45.0,33.2,29.90,NNE,15,5.0,7.0,63,0.00,,,0.01,Wunderground v.1.15,2013-03-28 14:04:00,
2013-03-28 10:09:00,45.2,32.1,29.90,North,11,5.0,11.0,60,0.00,,,0.01,Wunderground v.1.15,2013-03-28 14:09:00,
2013-03-28 10:14:00,45.2,32.1,29.90,NNE,17,10.0,13.0,60,0.00,,,0.01,Wunderground v.1.15,2013-03-28 14:14:00,
2013-03-28 10:19:00,45.3,31.8,29.91,North,360,5.0,13.0,59,0.00,,,0.01,Wunderground v.1.15,2013-03-28 14:19:00,
2013-03-28 10:24:00,45.4,31.9,29.91,North,360,1.0,11.0,59,0.00,,,0.01,Wunderground v.1.15,2013-03-28 14:24:00,
2013-03-28 10:29:00,45.7,32.2,29.91,North,355,4.0,11.0,59,0.00,,,0.01,Wunderground v.1.15,2013-03-28 14:29:00,
2013-03-28 10:34:00,45.8,31.9,29.91,NNE,28,6.0,10.0,58,0.00,,,0.01,Wunderground v.1.15,2013-03-28 14:34:00,
2013-03-28 10:39:00,46.0,31.2,29.91,NNW,347,9.0,13.0,56,0.00,,,0.01,Wunderground v.1.15,2013-03-28 14:39:00,
2013-03-28 10:44:00,46.3,31.9,29.91,NE,49,4.0,10.0,57,0.00,,,0.01,Wunderground v.1.15,2013-03-28 14:44:00,
2013-03-28 10:49:00,46.5,32.1,29.91,NNE,12,8.0,11.0,57,0.00,,,0.01,Wunderground v.1.15,2013-03-28 14:49:00,
2013-03-28 10:54:00,46.5,31.2,29.91,ENE,63,1.0,12.0,55,0.00,,,0.01,Wunderground v.1.15,2013-03-28 14:54:00,
2013-03-28 10:59:00,46.5,31.2,29.91,NNE,19,2.0,12.0,55,0.00,,,0.01,Wunderground v.1.15,2013-03-28 14:59:00,
2013-03-28 11:04:00,46.5,31.6,29.91,NE,47,5.0,9.0,56,0.00,,,0.01,Wunderground v.1.15,2013-03-28 15:04:00,
2013-03-28 11:09:00,46.7,31.8,29.91,North,5,6.0,11.0,56,0.00,,,0.01,Wunderground v.1.15,2013-03-28 15:09:00,
2013-03-28 11:14:00,46.8,31.9,29.91,NNE,30,3.0,7.0,56,0.00,,,0.01,Wunderground v.1.15,2013-03-28 15:14:00,
2013-03-28 11:19:00,47.0,31.7,29.91,North,360,5.0,9.0,55,0.00,,,0.01,Wunderground v.1.15,2013-03-28 15:19:00,
2013-03-28 11:24:00,47.1,31.7,29.91,NNW,340,7.0,7.0,55,0.00,,,0.01,Wunderground v.1.15,2013-03-28 15:24:00,
2013-03-28 11:29:00,47.3,31.9,29.91,North,11,6.0,9.0,55,0.00,,,0.01,Wunderground v.1.15,2013-03-28 15:29:00,
2013-03-28 11:34:00,47.6,31.3,29.91,NNE,22,4.0,9.0,53,0.00,,,0.01,Wunderground v.1.15,2013-03-28 15:34:00,
2013-03-28 11:39:00,47.6,30.8,29.91,NE,53,8.0,9.0,52,0.00,,,0.01,Wunderground v.1.15,2013-03-28 15:39:00,
2013-03-28 11:44:00,47.7,30.9,29.91,NNE,28,2.0,9.0,52,0.00,,,0.01,Wunderground v.1.15,2013-03-28 15:44:00,
2013-03-28 11:49:00,47.8,31.9,29.91,NNE,15,1.0,9.0,54,0.00,,,0.01,Wunderground v.1.15,2013-03-28 15:49:00,
2013-03-28 11:54:00,47.7,30.4,29.91,ENE,75,3.0,8.0,51,0.00,,,0.01,Wunderground v.1.15,2013-03-28 15:54:00,
2013-03-28 11:59:00,47.6,30.3,29.91,NNW,342,5.0,9.0,51,0.00,,,0.01,Wunderground v.1.15,2013-03-28 15:59:00,
2013-03-28 12:04:00,47.6,30.8,29.91,NNW,340,2.0,7.0,52,0.00,,,0.01,Wunderground v.1.15,2013-03-28 16:04:00,
2013-03-28 12:09:00,47.8,31.0,29.91,NE,53,3.0,7.0,52,0.00,,,0.01,Wunderground v.1.15,2013-03-28 16:09:00,
2013-03-28 12:14:00,48.0,31.2,29.91,NNW,342,4.0,12.0,52,0.00,,,0.01,Wunderground v.1.15,2013-03-28 16:14:00,
2013-03-28 12:19:00,48.1,30.8,29.91,NE,44,2.0,12.0,51,0.00,,,0.01,Wunderground v.1.15,2013-03-28 16:19:00,
2013-03-28 12:24:00,48.1,30.3,29.91,ENE,61,0.0,7.0,50,0.00,,,0.01,Wunderground v.1.15,2013-03-28 16:24:00,
2013-03-28 12:29:00,48.1,30.8,29.91,ENE,60,0.0,7.0,51,0.00,,,0.01,Wunderground v.1.15,2013-03-28 16:29:00,
2013-03-28 12:34:00,48.1,30.3,29.91,NE,50,1.0,7.0,50,0.00,,,0.01,Wunderground v.1.15,2013-03-28 16:34:00,
2013-03-28 12:39:00,48.0,30.2,29.91,ENE,77,4.0,8.0,50,0.00,,,0.01,Wunderground v.1.15,2013-03-28 16:39:00,
2013-03-28 12:44:00,48.0,29.7,29.91,ENE,61,2.0,8.0,49,0.00,,,0.01,Wunderground v.1.15,2013-03-28 16:44:00,
2013-03-28 12:49:00,48.0,30.2,29.91,ENE,61,2.0,8.0,50,0.00,,,0.01,Wunderground v.1.15,2013-03-28 16:49:00,
2013-03-28 12:54:00,47.9,29.6,29.91,ENE,60,0.0,3.0,49,0.00,,,0.01,Wunderground v.1.15,2013-03-28 16:54:00,
2013-03-28 12:59:00,47.8,30.0,29.91,NW,320,3.0,5.0,50,0.00,,,0.01,Wunderground v.1.15,2013-03-28 16:59:00,
2013-03-28 13:04:00,47.6,29.9,29.91,North,350,3.0,7.0,50,0.00,,,0.01,Wunderground v.1.15,2013-03-28 17:04:00,
2013-03-28 13:09:00,47.5,30.3,29.91,NW,326,3.0,8.0,51,0.00,,,0.01,Wunderground v.1.15,2013-03-28 17:09:00,
2013-03-28 13:14:00,47.3,30.1,29.91,NNE,33,5.0,6.0,51,0.00,,,0.01,Wunderground v.1.15,2013-03-28 17:14:00,
2013-03-28 13:19:00,47.1,29.4,29.91,North,360,3.0,6.0,50,0.00,,,0.01,Wunderground v.1.15,2013-03-28 17:19:00,
2013-03-28 13:24:00,47.0,29.8,29.91,North,5,3.0,7.0,51,0.00,,,0.01,Wunderground v.1.15,2013-03-28 17:24:00,
2013-03-28 13:29:00,46.9,30.2,29.91,NNE,30,6.0,8.0,52,0.00,,,0.01,Wunderground v.1.15,2013-03-28 17:29:00,
2013-03-28 13:34:00,47.0,29.8,29.91,NNW,342,3.0,6.0,51,0.00,,,0.01,Wunderground v.1.15,2013-03-28 17:34:00,
2013-03-28 13:39:00,47.1,30.4,29.91,NNE,19,3.0,6.0,52,0.00,,,0.01,Wunderground v.1.15,2013-03-28 17:39:00,
2013-03-28 13:44:00,47.4,30.6,29.91,NNE,30,3.0,4.0,52,0.00,,,0.01,Wunderground v.1.15,2013-03-28 17:44:00,
2013-03-28 13:49:00,47.6,30.3,29.91,ENE,76,1.0,7.0,51,0.00,,,0.01,Wunderground v.1.15,2013-03-28 17:49:00,
2013-03-28 13:54:00,47.8,31.0,29.91,WNW,303,2.0,7.0,52,0.00,,,0.01,Wunderground v.1.15,2013-03-28 17:54:00,
2013-03-28 13:59:00,47.9,30.6,29.91,North,350,8.0,8.0,51,0.00,,,0.01,Wunderground v.1.15,2013-03-28 17:59:00,
2013-03-28 14:04:00,47.8,31.0,29.91,North,355,4.0,8.0,52,0.00,,,0.01,Wunderground v.1.15,2013-03-28 18:04:00,
2013-03-28 14:09:00,47.5,31.2,29.91,NNW,327,3.0,10.0,53,0.00,,,0.01,Wunderground v.1.15,2013-03-28 18:09:00,
2013-03-28 14:14:00,47.3,31.5,29.91,NNW,331,4.0,6.0,54,0.00,,,0.01,Wunderground v.1.15,2013-03-28 18:14:00,
2013-03-28 14:19:00,47.3,32.4,29.91,NW,314,5.0,7.0,56,0.00,,,0.01,Wunderground v.1.15,2013-03-28 18:19:00,
2013-03-28 14:25:00,47.5,32.6,29.91,NNW,330,5.0,6.0,56,0.00,,,0.01,Wunderground v.1.15,2013-03-28 18:25:00,
2013-03-28 14:30:00,47.6,31.8,29.90,NNW,334,0.0,3.0,54,0.00,,,0.01,Wunderground v.1.15,2013-03-28 18:30:00,
2013-03-28 14:35:00,47.6,31.8,29.90,NW,320,1.0,3.0,54,0.00,,,0.01,Wunderground v.1.15,2013-03-28 18:35:00,
2013-03-28 14:40:00,47.8,31.9,29.90,NW,304,0.0,1.0,54,0.00,,,0.01,Wunderground v.1.15,2013-03-28 18:40:00,
2013-03-28 14:45:00,47.9,31.1,29.90,WNW,303,0.0,3.0,52,0.00,,,0.01,Wunderground v.1.15,2013-03-28 18:45:00,
2013-03-28 14:50:00,47.8,31.5,29.90,NW,307,0.0,1.0,53,0.00,,,0.01,Wunderground v.1.15,2013-03-28 18:50:00,
2013-03-28 14:55:00,47.8,31.5,29.90,ENE,60,1.0,4.0,53,0.00,,,0.01,Wunderground v.1.15,2013-03-28 18:55:00,
2013-03-28 15:00:00,47.9,31.6,29.91,NE,46,2.0,4.0,53,0.00,,,0.01,Wunderground v.1.15,2013-03-28 19:00:00,
2013-03-28 15:05:00,48.0,31.2,29.91,NNE,33,0.0,6.0,52,0.00,,,0.01,Wunderground v.1.15,2013-03-28 19:05:00,
2013-03-28 15:10:00,48.0,31.2,29.91,North,5,5.0,6.0,52,0.00,,,0.01,Wunderground v.1.15,2013-03-28 19:10:00,
2013-03-28 15:15:00,47.8,31.5,29.91,North,351,7.0,7.0,53,0.00,,,0.01,Wunderground v.1.15,2013-03-28 19:15:00,
2013-03-28 15:20:00,47.6,31.3,29.91,North,5,4.0,6.0,53,0.00,,,0.01,Wunderground v.1.15,2013-03-28 19:20:00,
2013-03-28 15:25:00,47.1,31.7,29.91,NE,45,4.0,9.0,55,0.00,,,0.01,Wunderground v.1.15,2013-03-28 19:25:00,
2013-03-28 15:31:00,46.8,31.9,29.92,North,350,3.0,5.0,56,0.00,,,0.01,Wunderground v.1.15,2013-03-28 19:31:00,
2013-03-28 15:36:00,46.6,32.6,29.91,NNW,337,1.0,5.0,58,0.00,,,0.01,Wunderground v.1.15,2013-03-28 19:36:00,
2013-03-28 15:41:00,46.5,33.8,29.91,NNW,337,2.0,3.0,61,0.00,,,0.01,Wunderground v.1.15,2013-03-28 19:41:00,
2013-03-28 15:46:00,46.5,34.2,29.91,North,350,3.0,4.0,62,0.00,,,0.01,Wunderground v.1.15,2013-03-28 19:46:00,
2013-03-28 15:51:00,46.6,33.4,29.91,ENE,74,3.0,5.0,60,0.00,,,0.01,Wunderground v.1.15,2013-03-28 19:51:00,
2013-03-28 15:56:00,46.7,33.5,29.91,ENE,74,1.0,5.0,60,0.00,,,0.01,Wunderground v.1.15,2013-03-28 19:56:00,
2013-03-28 16:01:00,46.9,33.7,29.91,SE,137,1.0,3.0,60,0.00,,,0.01,Wunderground v.1.15,2013-03-28 20:01:00,
2013-03-28 16:06:00,47.1,33.5,29.91,SE,130,2.0,4.0,59,0.00,,,0.01,Wunderground v.1.15,2013-03-28 20:06:00,
2013-03-28 16:11:00,47.4,33.8,29.91,SE,125,2.0,4.0,59,0.00,,,0.01,Wunderground v.1.15,2013-03-28 20:11:00,
2013-03-28 16:16:00,47.6,34.0,29.91,ESE,109,7.0,9.0,59,0.00,,,0.01,Wunderground v.1.15,2013-03-28 20:16:00,
2013-03-28 16:21:00,47.6,33.1,29.91,ESE,117,4.0,8.0,57,0.00,,,0.01,Wunderground v.1.15,2013-03-28 20:21:00,
2013-03-28 16:26:00,47.4,32.5,29.91,ESE,122,4.0,8.0,56,0.00,,,0.01,Wunderground v.1.15,2013-03-28 20:26:00,
2013-03-28 16:31:00,47.2,32.7,29.91,ESE,115,1.0,5.0,57,0.00,,,0.01,Wunderground v.1.15,2013-03-28 20:31:00,
2013-03-28 16:36:00,47.0,32.5,29.92,ESE,123,4.0,8.0,57,0.00,,,0.01,Wunderground v.1.15,2013-03-28 20:36:00,
2013-03-28 16:41:00,46.8,32.8,29.92,ESE,122,7.0,7.0,58,0.00,,,0.01,Wunderground v.1.15,2013-03-28 20:41:00,
2013-03-28 16:46:00,46.6,32.6,29.92,ESE,109,5.0,7.0,58,0.00,,,0.01,Wunderground v.1.15,2013-03-28 20:46:00,
2013-03-28 16:51:00,46.4,33.3,29.92,SE,125,3.0,5.0,60,0.00,,,0.01,Wunderground v.1.15,2013-03-28 20:51:00,
2013-03-28 16:56:00,46.1,33.4,29.92,SE,132,4.0,5.0,61,0.00,,,0.01,Wunderground v.1.15,2013-03-28 20:56:00,
2013-03-28 17:01:00,45.9,34.8,29.92,SSE,147,4.0,6.0,65,0.00,,,0.02,Wunderground v.1.15,2013-03-28 21:01:00,
2013-03-28 17:06:00,45.7,35.4,29.92,SSE,155,4.0,6.0,67,0.00,,,0.02,Wunderground v.1.15,2013-03-28 21:06:00,
2013-03-28 17:11:00,45.4,35.1,29.93,SE,138,3.0,5.0,67,0.00,,,0.02,Wunderground v.1.15,2013-03-28 21:11:00,
2013-03-28 17:16:00,45.1,35.2,29.93,SE,131,4.0,5.0,68,0.00,,,0.02,Wunderground v.1.15,2013-03-28 21:16:00,
2013-03-28 17:21:00,45.0,35.4,29.92,SE,130,2.0,2.0,69,0.00,,,0.02,Wunderground v.1.15,2013-03-28 21:21:00,
2013-03-28 17:26:00,44.8,35.2,29.93,SE,130,0.0,3.0,69,0.00,,,0.02,Wunderground v.1.15,2013-03-28 21:26:00,
2013-03-28 17:31:00,44.6,35.1,29.93,SE,130,0.0,1.0,69,0.00,,,0.02,Wunderground v.1.15,2013-03-28 21:31:00,
2013-03-28 17:36:00,44.5,35.0,29.93,SE,130,0.0,1.0,69,0.00,,,0.02,Wunderground v.1.15,2013-03-28 21:36:00,
2013-03-28 17:41:00,44.3,34.8,29.93,SE,130,0.0,0.0,69,0.00,,,0.02,Wunderground v.1.15,2013-03-28 21:41:00,
2013-03-28 17:46:00,44.2,35.0,29.93,SE,132,0.0,0.0,70,0.00,,,0.02,Wunderground v.1.15,2013-03-28 21:46:00,
2013-03-28 17:51:00,44.2,35.0,29.93,SE,131,0.0,0.0,70,0.00,,,0.02,Wunderground v.1.15,2013-03-28 21:51:00,
2013-03-28 17:56:00,44.2,35.0,29.93,SE,133,0.0,2.0,70,0.00,,,0.02,Wunderground v.1.15,2013-03-28 21:56:00,
2013-03-28 18:01:00,44.2,35.0,29.93,SE,134,0.0,2.0,70,0.00,,,0.02,Wunderground v.1.15,2013-03-28 22:01:00,
2013-03-28 18:06:00,44.2,35.0,29.93,SW,232,2.0,4.0,70,0.00,,,0.02,Wunderground v.1.15,2013-03-28 22:06:00,
2013-03-28 18:11:00,44.1,34.9,29.93,SW,230,1.0,3.0,70,0.00,,,0.02,Wunderground v.1.15,2013-03-28 22:11:00,
2013-03-28 18:16:00,44.1,34.9,29.93,SW,232,2.0,3.0,70,0.00,,,0.02,Wunderground v.1.15,2013-03-28 22:16:00,
2013-03-28 18:21:00,44.1,34.9,29.93,WSW,237,1.0,3.0,70,0.00,,,0.02,Wunderground v.1.15,2013-03-28 22:21:00,
2013-03-28 18:27:00,44.1,34.9,29.93,West,260,2.0,4.0,70,0.00,,,0.02,Wunderground v.1.15,2013-03-28 22:27:00,
2013-03-28 18:32:00,44.1,34.9,29.93,West,259,2.0,2.0,70,0.00,,,0.02,Wunderground v.1.15,2013-03-28 22:32:00,
2013-03-28 18:37:00,44.1,34.9,29.94,WSW,248,3.0,3.0,70,0.00,,,0.02,Wunderground v.1.15,2013-03-28 22:37:00,
2013-03-28 18:42:00,44.0,34.5,29.94,WSW,255,0.0,2.0,69,0.00,,,0.02,Wunderground v.1.15,2013-03-28 22:42:00,
2013-03-28 18:47:00,44.0,34.5,29.94,WSW,255,0.0,2.0,69,0.00,,,0.02,Wunderground v.1.15,2013-03-28 22:47:00,
2013-03-28 18:52:00,43.9,34.4,29.94,WSW,255,0.0,2.0,69,0.00,,,0.02,Wunderground v.1.15,2013-03-28 22:52:00,
2013-03-28 18:57:00,43.8,34.3,29.94,WSW,255,1.0,3.0,69,0.00,,,0.02,Wunderground v.1.15,2013-03-28 22:57:00,
2013-03-28 19:02:00,43.8,34.3,29.94,WSW,255,0.0,1.0,69,0.00,,,0.02,Wunderground v.1.15,2013-03-28 23:02:00,
2013-03-28 19:07:00,43.7,34.2,29.94,WSW,256,0.0,4.0,69,0.00,,,0.02,Wunderground v.1.15,2013-03-28 23:07:00,
2013-03-28 19:12:00,43.6,34.1,29.95,WSW,258,3.0,3.0,69,0.00,,,0.02,Wunderground v.1.15,2013-03-28 23:12:00,
2013-03-28 19:17:00,43.5,34.0,29.95,West,259,2.0,3.0,69,0.00,,,0.02,Wunderground v.1.15,2013-03-28 23:17:00,
2013-03-28 19:22:00,43.4,33.9,29.95,West,260,0.0,3.0,69,0.00,,,0.02,Wunderground v.1.15,2013-03-28 23:22:00,
2013-03-28 19:27:00,43.4,33.9,29.95,West,260,0.0,3.0,69,0.00,,,0.02,Wunderground v.1.15,2013-03-28 23:27:00,
2013-03-28 19:32:00,43.3,33.8,29.95,West,260,3.0,4.0,69,0.00,,,0.02,Wunderground v.1.15,2013-03-28 23:32:00,
2013-03-28 19:37:00,43.3,33.8,29.95,West,260,4.0,4.0,69,0.00,,,0.02,Wunderground v.1.15,2013-03-28 23:37:00,
2013-03-28 19:42:00,43.2,33.7,29.96,West,259,0.0,2.0,69,0.00,,,0.02,Wunderground v.1.15,2013-03-28 23:42:00,
2013-03-28 19:47:00,43.2,33.7,29.96,West,259,0.0,3.0,69,0.00,,,0.02,Wunderground v.1.15,2013-03-28 23:47:00,
2013-03-28 19:52:00,43.2,33.7,29.96,West,259,1.0,3.0,69,0.00,,,0.02,Wunderground v.1.15,2013-03-28 23:52:00,
2013-03-28 19:57:00,43.1,34.0,29.96,West,259,1.0,3.0,70,0.00,,,0.02,Wunderground v.1.15,2013-03-28 23:57:00,
2013-03-28 20:02:00,43.1,34.0,29.96,West,261,0.0,1.0,70,0.00,,,0.02,Wunderground v.1.15,2013-03-29 00:02:00,
2013-03-28 20:07:00,43.0,33.9,29.96,West,261,2.0,3.0,70,0.00,,,0.02,Wunderground v.1.15,2013-03-29 00:07:00,
2013-03-28 20:12:00,43.0,33.9,29.96,West,259,3.0,4.0,70,0.00,,,0.02,Wunderground v.1.15,2013-03-29 00:12:00,
2013-03-28 20:17:00,42.9,33.8,29.96,West,259,2.0,4.0,70,0.00,,,0.02,Wunderground v.1.15,2013-03-29 00:17:00,
2013-03-28 20:22:00,42.9,33.8,29.96,West,259,2.0,4.0,70,0.00,,,0.02,Wunderground v.1.15,2013-03-29 00:22:00,
2013-03-28 20:27:00,42.9,33.8,29.96,West,259,1.0,4.0,70,0.00,,,0.02,Wunderground v.1.15,2013-03-29 00:27:00,
2013-03-28 20:32:00,42.8,33.7,29.96,WSW,254,2.0,3.0,70,0.00,,,0.02,Wunderground v.1.15,2013-03-29 00:32:00,
2013-03-28 20:37:00,42.8,33.7,29.97,WSW,255,0.0,3.0,70,0.00,,,0.02,Wunderground v.1.15,2013-03-29 00:37:00,
2013-03-28 20:42:00,42.8,33.7,29.97,WSW,254,0.0,2.0,70,0.00,,,0.02,Wunderground v.1.15,2013-03-29 00:42:00,
2013-03-28 20:47:00,42.7,33.6,29.97,WSW,255,0.0,2.0,70,0.00,,,0.02,Wunderground v.1.15,2013-03-29 00:47:00,
2013-03-28 20:53:00,42.7,33.2,29.97,WSW,254,0.0,1.0,69,0.00,,,0.02,Wunderground v.1.15,2013-03-29 00:53:00,
2013-03-28 20:58:00,42.6,33.1,29.97,WSW,255,0.0,1.0,69,0.00,,,0.02,Wunderground v.1.15,2013-03-29 00:58:00,
2013-03-28 21:03:00,42.6,33.5,29.97,WSW,255,1.0,2.0,70,0.00,,,0.02,Wunderground v.1.15,2013-03-29 01:03:00,
2013-03-28 21:08:00,42.6,33.1,29.97,WSW,255,0.0,2.0,69,0.00,,,0.02,Wunderground v.1.15,2013-03-29 01:08:00,
2013-03-28 21:13:00,42.5,33.0,29.97,WSW,256,0.0,1.0,69,0.00,,,0.02,Wunderground v.1.15,2013-03-29 01:13:00,
2013-03-28 21:18:00,42.5,33.0,29.97,WSW,255,1.0,2.0,69,0.00,,,0.02,Wunderground v.1.15,2013-03-29 01:18:00,
2013-03-28 21:23:00,42.5,33.0,29.97,WSW,255,2.0,3.0,69,0.00,,,0.02,Wunderground v.1.15,2013-03-29 01:23:00,
2013-03-28 21:28:00,42.4,32.9,29.97,West,260,2.0,4.0,69,0.00,,,0.02,Wunderground v.1.15,2013-03-29 01:28:00,
2013-03-28 21:33:00,42.4,32.9,29.98,West,259,2.0,3.0,69,0.00,,,0.02,Wunderground v.1.15,2013-03-29 01:33:00,
2013-03-28 21:38:00,42.3,32.8,29.98,West,259,0.0,3.0,69,0.00,,,0.02,Wunderground v.1.15,2013-03-29 01:38:00,
2013-03-28 21:43:00,42.3,33.2,29.98,West,259,1.0,2.0,70,0.00,,,0.02,Wunderground v.1.15,2013-03-29 01:43:00,
2013-03-28 21:48:00,42.3,33.2,29.98,West,259,0.0,3.0,70,0.00,,,0.02,Wunderground v.1.15,2013-03-29 01:48:00,
2013-03-28 21:53:00,42.3,33.2,29.98,West,260,0.0,2.0,70,0.00,,,0.02,Wunderground v.1.15,2013-03-29 01:53:00,
2013-03-28 21:58:00,42.3,33.2,29.98,West,260,2.0,2.0,70,0.00,,,0.02,Wunderground v.1.15,2013-03-29 01:58:00,
2013-03-28 22:03:00,42.2,33.1,29.98,West,260,0.0,1.0,70,0.00,,,0.02,Wunderground v.1.15,2013-03-29 02:03:00,
2013-03-28 22:08:00,42.2,33.1,29.98,West,260,0.0,1.0,70,0.00,,,0.02,Wunderground v.1.15,2013-03-29 02:08:00,
2013-03-28 22:13:00,42.2,33.1,29.98,West,260,0.0,2.0,70,0.00,,,0.02,Wunderground v.1.15,2013-03-29 02:13:00,
2013-03-28 22:18:00,42.2,33.1,29.98,West,259,0.0,2.0,70,0.00,,,0.02,Wunderground v.1.15,2013-03-29 02:18:00,
2013-03-28 22:23:00,42.1,33.0,29.98,West,260,1.0,2.0,70,0.00,,,0.02,Wunderground v.1.15,2013-03-29 02:23:00,
2013-03-28 22:28:00,42.0,32.9,29.97,West,260,0.0,2.0,70,0.00,,,0.02,Wunderground v.1.15,2013-03-29 02:28:00,
2013-03-28 22:33:00,42.0,32.9,29.97,West,260,1.0,3.0,70,0.00,,,0.02,Wunderground v.1.15,2013-03-29 02:33:00,
2013-03-28 22:38:00,42.0,32.9,29.98,West,259,1.0,4.0,70,0.00,,,0.02,Wunderground v.1.15,2013-03-29 02:38:00,
2013-03-28 22:43:00,41.9,32.8,29.98,West,259,1.0,2.0,70,0.00,,,0.02,Wunderground v.1.15,2013-03-29 02:43:00,
2013-03-28 22:48:00,41.9,32.8,29.98,West,275,2.0,4.0,70,0.00,,,0.02,Wunderground v.1.15,2013-03-29 02:48:00,
2013-03-28 22:53:00,41.9,32.8,29.98,WNW,296,1.0,4.0,70,0.00,,,0.02,Wunderground v.1.15,2013-03-29 02:53:00,
2013-03-28 22:58:00,41.8,32.7,29.98,WNW,299,1.0,6.0,70,0.00,,,0.02,Wunderground v.1.15,2013-03-29 02:58:00,
2013-03-28 23:03:00,41.7,32.6,29.98,WNW,294,4.0,5.0,70,0.00,,,0.02,Wunderground v.1.15,2013-03-29 03:03:00,
2013-03-28 23:08:00,41.7,32.3,29.98,WNW,295,1.0,5.0,69,0.00,,,0.02,Wunderground v.1.15,2013-03-29 03:08:00,
2013-03-28 23:13:00,41.7,32.3,29.98,WNW,284,1.0,4.0,69,0.00,,,0.02,Wunderground v.1.15,2013-03-29 03:13:00,
2013-03-28 23:18:00,41.7,32.3,29.98,WNW,298,2.0,4.0,69,0.00,,,0.02,Wunderground v.1.15,2013-03-29 03:18:00,
2013-03-28 23:23:00,41.7,32.3,29.97,WNW,297,3.0,5.0,69,0.00,,,0.02,Wunderground v.1.15,2013-03-29 03:23:00,
2013-03-28 23:28:00,41.7,32.3,29.98,WNW,291,2.0,5.0,69,0.00,,,0.02,Wunderground v.1.15,2013-03-29 03:28:00,
2013-03-28 23:33:00,41.7,31.9,29.98,NW,315,3.0,5.0,68,0.00,,,0.02,Wunderground v.1.15,2013-03-29 03:33:00,
2013-03-28 23:38:00,41.8,32.0,29.97,NW,314,2.0,5.0,68,0.00,,,0.02,Wunderground v.1.15,2013-03-29 03:38:00,
2013-03-28 23:43:00,41.8,32.0,29.98,NW,315,2.0,4.0,68,0.00,,,0.02,Wunderground v.1.15,2013-03-29 03:43:00,
2013-03-28 23:48:00,41.8,31.6,29.98,NW,315,0.0,4.0,67,0.00,,,0.02,Wunderground v.1.15,2013-03-29 03:48:00,
2013-03-28 23:53:00,41.8,32.0,29.98,NW,315,0.0,3.0,68,0.00,,,0.02,Wunderground v.1.15,2013-03-29 03:53:00,
2013-03-28 23:58:00,41.8,32.0,29.98,WNW,291,2.0,4.0,68,0.00,,,0.02,Wunderground v.1.15,2013-03-29 03:58:00,